User: anonymous
Location: Unspecified
(0.0000°N, 0.0000°E)
Time: 13:56:52
(UTC+00:00)
Language:

NAVSTAR 64 (USA 206) - Orbit

View from above orbital plane
View from above orbital plane
View from above satellite
View from above satellite

Ground track
Ground track

The orbit data is extracted from the following two-line orbital elements,

1 35752U 09043A   14112.31215413 -.00000023  00000-0  00000+0 0  7439
2 35752 054.2805 206.2170 0034914 014.6789 027.1711 02.00574015 34327
Epoch (UTC): 22 April 2014 07:29:30
Eccentricity: 0.0034914
inclination: 54.2805°
perigee height: 20088 km
apogee height: 20274 km
right ascension of ascending node: 206.2170°
argument of perigee: 14.6789°
revolutions per day: 2.00574015
mean anomaly at epoch: 27.1711°
orbit number at epoch: 3432

The dashed part of the orbit path shows where the satellite is in the earth's shadow,  

DLR